CDT,Max TemperatureF,Mean TemperatureF,Min TemperatureF,Max Dew PointF,MeanDew PointF,Min DewpointF,Max Humidity, Mean Humidity, Min Humidity, Max Sea Level PressureIn, Mean Sea Level PressureIn, Min Sea Level PressureIn, Max VisibilityMiles, Mean VisibilityMiles, Min VisibilityMiles, Max Wind SpeedMPH, Mean Wind SpeedMPH, Max Gust SpeedMPH,PrecipitationIn, CloudCover, Events, WindDirDegrees
2013-9-1,74,64,53,58,54,52,100,75,49,30.10,30.06,29.97,10,10,9,13,7,21,0.00,4,,347
2013-9-2,84,66,48,58,52,47,96,65,34,30.12,30.04,29.95,10,10,10,16,7,20,0.00,0,,119
2013-9-3,88,73,58,62,58,54,87,64,40,30.01,29.96,29.94,10,10,10,10,5,14,0.00,0,,100
2013-9-4,83,71,58,61,54,46,93,65,36,30.16,30.11,30.03,10,10,9,18,11,24,0.00,0,,77
2013-9-5,92,76,60,66,57,49,73,55,36,30.14,30.05,29.94,10,10,10,16,7,20,0.00,0,,116
2013-9-6,94,79,63,68,65,62,93,65,36,29.95,29.90,29.86,10,10,7,13,3,15,T,0,Rain,101
2013-9-7,77,71,64,67,62,59,93,79,64,30.12,30.04,29.91,10,10,2,18,9,22,0.29,5,Rain-Thunderstorm,58
2013-9-8,78,71,63,66,64,62,100,82,64,30.04,29.93,29.77,10,10,6,33,6,39,0.34,4,Rain-Thunderstorm,70
2013-9-9,80,70,59,67,64,57,93,73,52,29.85,29.73,29.65,10,7,1,16,7,21,1.76,6,Rain-Thunderstorm,352
2013-9-10,84,71,57,58,55,51,93,63,32,30.02,29.94,29.84,10,10,10,20,7,24,0.00,1,,283
2013-9-11,81,68,55,55,49,41,93,60,26,30.24,30.13,30.04,10,10,10,16,6,20,0.00,2,,308
2013-9-12,75,60,45,52,47,44,93,64,35,30.37,30.29,30.24,10,10,10,12,5,18,0.00,0,,17
2013-9-13,82,66,50,53,50,47,89,61,33,30.23,30.07,29.87,10,10,10,22,10,28,0.00,0,,144
2013-9-14,68,62,56,61,57,47,100,72,44,30.05,29.85,29.80,10,6,1,20,6,28,1.48,7,Rain,70
2013-9-15,65,56,46,50,46,43,93,71,48,30.32,30.26,30.08,10,10,10,18,8,23,0.00,0,,50
2013-9-16,71,58,44,53,48,42,93,69,44,30.31,30.18,29.97,10,10,5,26,14,33,0.00,2,,149
2013-9-17,80,67,53,62,56,51,93,74,54,29.95,29.80,29.69,10,10,10,20,11,23,0.00,0,,161
2013-9-18,78,70,61,66,62,58,100,85,69,29.75,29.61,29.55,10,8,1,21,7,27,0.04,6,Rain-Thunderstorm,180
2013-9-19,66,58,50,56,48,43,86,76,66,30.07,29.90,29.67,10,10,9,26,15,36,T,5,,295
2013-9-20,67,54,41,45,40,37,89,62,34,30.10,30.04,29.99,10,10,9,18,8,23,0.00,2,Rain,315
2013-9-21,73,55,37,46,42,36,93,63,33,30.01,29.88,29.73,10,10,10,21,11,26,0.00,0,,96
2013-9-22,84,66,48,65,54,45,93,69,45,29.70,29.53,29.42,10,10,10,23,11,29,0.01,1,Rain-Thunderstorm,118
2013-9-23,74,64,54,60,56,54,100,79,57,29.84,29.60,29.42,10,8,2,23,8,33,0.20,5,Rain-Thunderstorm,243
2013-9-24,76,59,42,53,46,40,100,64,27,29.96,29.90,29.84,10,5,0,10,4,15,0.00,0,Fog,221
2013-9-25,78,65,52,55,51,44,83,61,39,29.82,29.65,29.55,10,10,10,32,14,42,0.00,0,,146
2013-9-26,67,58,48,58,53,41,90,71,52,29.90,29.65,29.52,10,10,8,26,10,31,0.02,4,Rain-Thunderstorm,254
2013-9-27,57,52,47,48,45,41,93,78,62,29.91,29.86,29.81,10,10,7,15,8,19,0.21,7,Rain,323
2013-9-28,67,55,42,47,42,36,93,65,36,29.85,29.82,29.77,10,10,10,23,7,30,0.01,4,Rain,268
2013-9-29,74,57,40,50,43,38,93,64,35,29.83,29.69,29.55,10,10,10,20,8,24,0.00,0,,152
2013-9-30,77,60,42,49,46,40,93,64,35,29.67,29.57,29.46,10,10,10,31,8,44,T,2,Rain,227